Location: Basses Si�yes
(44.0835°N, 6.2037°E)
Time: 15:00:35
(UTC+00:00)

STARLINK-26 - Pass Details

Date: 27 February 2020
Orbit: 434 x 437 km, 53.0° (Epoch: 28 March)

Event Time Altitude Azimuth Distance (km) Brightness Sun altitude
Rises 19:07:54 0° 306° (NW) 2,417 8.0 -20.1°
Reaches altitude 10° 19:10:07 10° 315° (NW) 1,547 6.7 -20.5°
Enters shadow 19:12:54 35° 3° (N) 725 4.2 -21.0°
